EW0051 Weather Reports


time (UTC)temp
F
wind
direction
speed
knots
gust
knots
rain 1hr
in
rain 24hr
in
rain mn
in
humidity
%
barometer
mb
20260506134529 60 5 1.7 6.1 0.00 0.00 0.00 65 1009.2
20260506134146 60 48 0.9 8.7 0.00 0.00 0.00 66 1009.2
20260506133103 60 6 2.6 11.3 0.00 0.00 0.00 65 1009.2
20260506132713 60 22 1.7 8.7 0.00 0.00 0.00 65 1009.2
20260506131541 60 356 0.9 8.7 0.00 0.00 0.00 65 1009.1
20260506131155 60 348 1.7 9.6 0.00 0.00 0.00 64 1009.1
20260506130054 60 348 1.7 9.6 0.00 0.00 0.00 64 1009.1
20260506125548 60 27 1.7 6.1 0.00 0.00 0.00 64 1009.0
20260506125108 59 103 0.0 4.3 0.00 0.00 0.00 63 1009.1
20260506124613 59 0 0.9 6.1 0.00 0.00 0.00 62 1009.1
20260506124219 60 339 0.9 6.1 0.00 0.00 0.00 62 1009.1
20260506123121 60 27 1.7 8.7 0.00 0.00 0.00 60 1008.9
20260506122539 61 57 0.9 8.7 0.00 0.00 0.00 58 1009.1
20260506122100 62 13 0.9 8.7 0.00 0.00 0.00 58 1009.0
20260506121614 62 99 1.7 8.7 0.00 0.00 0.00 58 1008.9
20260506121041 62 228 0.9 4.3 0.00 0.00 0.00 59 1008.8
20260506120610 62 96 0.9 6.1 0.00 0.00 0.00 59 1008.8
20260506120027 62 180 1.7 7.8 0.00 0.00 0.00 59 1008.7
20260506115555 61 30 2.6 7.8 0.00 0.00 0.00 59 1008.7
20260506115029 61 20 0.9 5.2 0.00 0.00 0.00 60 1008.8
20260506114552 60 168 1.7 6.1 0.00 0.00 0.00 59 1008.7
20260506114045 61 39 1.7 6.1 0.00 0.00 0.00 59 1008.7
20260506113600 61 346 0.9 10.4 0.00 0.00 0.00 59 1008.7
20260506113121 61 50 1.7 10.4 0.00 0.00 0.00 60 1008.7
20260506112548 61 3 0.9 6.1 0.00 0.00 0.00 60 1008.7
20260506112111 61 34 0.0 6.1 0.00 0.00 0.00 60 1008.7
20260506111530 60 215 0.9 6.1 0.00 0.00 0.00 60 1008.8
20260506111055 60 341 0.9 4.3 0.00 0.00 0.00 60 1008.7
20260506110528 60 153 0.9 4.3 0.00 0.00 0.00 58 1008.6
20260506110044 61 181 1.7 4.3 0.00 0.00 0.00 57 1008.7
20260506105602 60 23 0.9 4.3 0.00 0.00 0.00 61 1008.6
20260506105116 59 37 1.7 4.3 0.00 0.00 0.00 62 1008.6
20260506104043 58 95 0.0 6.1 0.00 0.00 0.00 61 1008.7
20260506103613 58 187 1.7 6.1 0.00 0.00 0.00 58 1008.7
20260506103034 58 204 1.7 5.2 0.00 0.00 0.00 57 1008.6
20260506102643 58 170 0.9 5.2 0.00 0.00 0.00 57 1008.6
20260506101609 57 267 0.9 4.3 0.00 0.00 0.00 61 1008.7
20260506101032 56 284 0.0 4.3 0.00 0.00 0.00 61 1008.6
20260506100559 56 339 0.0 4.3 0.00 0.00 0.00 62 1008.5
20260506100016 56 262 0.9 4.3 0.00 0.00 0.00 62 1008.5
20260506095627 56 200 0.9 4.3 0.00 0.00 0.00 62 1008.6
20260506095256 56 214 0.0 3.5 0.00 0.00 0.00 62 1008.5
20260506093614 56 32 0.0 3.5 0.00 0.00 0.00 63 1008.5
20260506093030 56 109 0.0 1.7 0.00 0.00 0.00 63 1008.5
20260506092552 56 88 0.0 5.2 0.00 0.00 0.00 64 1008.5
20260506092023 56 81 0.0 5.2 0.00 0.00 0.00 64 1008.5
20260506091534 56 61 0.0 4.3 0.00 0.00 0.00 66 1008.5
20260506091145 56 256 0.0 4.3 0.00 0.00 0.00 65 1008.5
20260506085631 56 239 0.0 2.6 0.00 0.00 0.00 67 1008.5
20260506084608 55 259 0.9 2.6 0.00 0.00 0.00 66 1008.5
20260506084033 55 13 0.0 2.6 0.00 0.00 0.00 66 1008.3
20260506083602 55 328 0.0 2.6 0.00 0.00 0.00 66 1008.5
20260506083124 55 325 0.0 0.9 0.00 0.00 0.00 67 1008.5
20260506082057 55 339 0.9 5.2 0.00 0.00 0.00 65 1008.4
20260506081526 55 180 0.0 5.2 0.00 0.00 0.00 65 1008.3
20260506081044 55 183 0.0 4.3 0.00 0.00 0.00 66 1008.3
20260506080609 55 8 0.0 4.3 0.00 0.00 0.00 67 1008.2
20260506073152 54 207 0.0 4.3 0.00 0.00 0.00 72 1008.0
20260506071541 53 144 0.0 1.7 0.00 0.00 0.00 76 1008.0
20260506071027 53 352 0.0 1.7 0.00 0.00 0.00 78 1008.0
20260506070559 53 358 0.0 2.6 0.00 0.00 0.00 79 1007.9
20260506061534 51 85 0.0 3.5 0.00 0.00 0.00 83 1007.8
20260506061106 51 86 0.0 3.5 0.00 0.00 0.00 84 1007.8
20260506060544 50 36 0.0 0.9 0.00 0.00 0.00 85 1007.8
20260506060205 50 34 0.0 2.6 0.00 0.00 0.00 85 1007.8
20260506051038 48 33 0.0 1.7 0.00 0.00 0.00 88 1007.7
20260506050604 47 27 0.0 0.9 0.00 0.00 0.00 88 1007.7
20260506045110 47 3 0.0 0.9 0.00 0.00 0.00 88 1007.7
20260506044100 47 2 0.0 1.7 0.00 0.00 0.00 88 1007.8
20260506043533 47 44 0.0 0.9 0.00 0.00 0.00 87 1007.9
20260506043010 46 24 0.0 0.9 0.00 0.00 0.00 87 1007.8
20260506042634 47 26 0.0 0.9 0.00 0.00 0.00 87 1007.8
20260506041527 47 24 0.0 0.9 0.00 0.00 0.00 88 1007.8
20260506041148 47 24 0.0 0.0 0.00 0.00 0.00 87 1007.8
20260506040037 47 24 0.0 0.9 0.00 0.00 0.00 88 1007.8
20260506035607 47 22 0.0 0.0 0.00 0.00 0.00 88 1007.7
20260506035039 47 22 0.0 0.0 0.00 0.00 0.00 88 1007.7
20260506034803 47 22 0.0 0.0 0.00 0.00 0.00 87 1007.8
20260506033850 47 22 0.0 0.0 0.00 0.00 0.00 87 1007.9
20260506031622 47 23 0.0 0.0 0.00 0.00 0.00 87 1008.0
20260506031155 48 23 0.0 0.0 0.00 0.00 0.00 87 1007.9
20260506030717 48 23 0.0 0.0 0.00 0.00 0.00 87 1008.1
20260506025628 48 23 0.0 1.7 0.00 0.00 0.00 87 1008.1
20260506025108 48 23 0.0 1.7 0.00 0.00 0.00 87 1008.1
20260506024641 48 24 0.0 2.6 0.00 0.00 0.00 87 1008.1
20260506024107 49 36 0.0 2.6 0.00 0.00 0.00 87 1008.1
20260506023635 49 26 0.0 0.9 0.00 0.00 0.00 87 1008.2
20260506023108 49 33 0.0 0.9 0.00 0.00 0.00 87 1008.2
20260506022632 49 32 0.0 0.9 0.00 0.00 0.00 87 1008.2
20260506021618 49 30 0.0 0.9 0.00 0.00 0.00 86 1008.3
20260506021053 49 39 0.0 1.7 0.00 0.00 0.00 86 1008.3
20260506020721 49 39 0.0 1.7 0.00 0.00 0.00 86 1008.4
20260506015125 49 37 0.0 2.6 0.00 0.00 0.00 85 1008.4
20260506014603 49 41 0.0 0.9 0.00 0.00 0.00 84 1008.3
20260506014136 49 19 0.0 1.7 0.00 0.00 0.00 84 1008.4
20260506013608 49 17 0.0 1.7 0.00 0.00 0.00 84 1008.3
20260506013131 49 17 0.0 2.6 0.00 0.00 0.00 84 1008.4
20260506012120 49 13 0.0 2.6 0.00 0.00 0.00 83 1008.5
20260506011544 49 22 0.0 1.7 0.00 0.00 0.00 83 1008.5
20260506011111 49 20 0.0 1.7 0.00 0.00 0.00 83 1008.5
20260506010632 49 26 0.0 0.0 0.00 0.00 0.00 82 1008.6
20260506010158 49 27 0.0 0.9 0.00 0.00 0.00 82 1008.6
20260506005049 50 27 0.0 0.9 0.00 0.00 0.00 82 1008.7
20260506004617 50 27 0.0 3.5 0.00 0.00 0.00 82 1008.6
20260506004051 50 27 0.0 3.5 0.00 0.00 0.00 82 1008.8
20260506003616 50 29 0.0 1.7 0.00 0.00 0.00 82 1008.9
20260506003042 50 29 0.0 1.7 0.00 0.00 0.00 82 1008.9
20260506002603 50 32 0.0 1.7 0.00 0.00 0.00 82 1009.0
20260506002126 50 26 0.0 0.0 0.00 0.00 0.00 82 1009.0
20260506001601 50 26 0.0 1.7 0.00 0.00 0.00 82 1009.0
20260506001032 50 26 0.0 1.7 0.00 0.00 0.00 83 1009.1
20260506000554 50 22 0.0 1.7 0.00 0.00 0.00 83 1009.1
20260506000119 50 41 0.0 1.7 0.00 0.00 0.00 83 1009.0
20260505235157 50 27 0.0 3.5 0.00 0.00 0.00 83 1009.0
20260505234033 50 16 0.0 1.7 0.00 0.00 0.00 83 1009.0
20260505233557 50 32 0.0 2.6 0.00 0.00 0.00 82 1009.0
20260505233125 50 34 0.0 2.6 0.00 0.00 0.00 82 1009.0
20260505232553 50 358 0.0 2.6 0.00 0.00 0.00 82 1009.1
20260505232023 50 44 0.0 2.6 0.00 0.00 0.00 82 1009.2
20260505231640 50 12 0.0 3.5 0.00 0.00 0.00 82 1009.2
20260505230605 50 8 0.9 2.6 0.00 0.00 0.00 82 1009.2
20260505230110 50 12 0.0 4.3 0.00 0.00 0.00 82 1009.2
20260505225143 50 37 0.0 3.5 0.00 0.00 0.00 81 1009.4
20260505224117 50 41 0.0 2.6 0.00 0.00 0.00 81 1009.4
20260505223053 50 44 0.0 3.5 0.00 0.00 0.00 81 1009.6
20260505222524 50 17 0.0 3.5 0.00 0.00 0.00 80 1009.7
20260505222048 50 5 0.9 3.5 0.00 0.00 0.00 80 1009.6
20260505221525 50 34 0.0 5.2 0.00 0.00 0.00 80 1009.6
20260505221045 50 43 2.6 5.2 0.00 0.00 0.00 80 1009.7
20260505220608 50 22 0.0 2.6 0.00 0.00 0.00 80 1009.7
20260505215537 50 26 0.0 4.3 0.00 0.00 0.00 80 1009.8
20260505215012 50 23 0.9 4.3 0.00 0.00 0.00 80 1009.8
20260505214538 50 55 0.0 3.5 0.00 0.00 0.00 80 1009.7
20260505214147 50 60 0.0 3.5 0.00 0.00 0.00 80 1009.9
20260505213107 50 348 1.7 6.1 0.00 0.00 0.00 80 1009.9
20260505212039 50 27 0.9 2.6 0.00 0.00 0.00 80 1010.0
20260505211556 50 41 0.0 3.5 0.00 0.00 0.00 80 1010.0
20260505211115 50 36 0.0 4.3 0.00 0.00 0.00 79 1009.9
20260505210145 50 359 0.9 5.2 0.00 0.00 0.00 79 1010.0
20260505205024 50 24 0.0 4.3 0.00 0.00 0.00 79 1010.0
20260505204541 50 16 0.0 4.3 0.00 0.00 0.00 79 1010.0
20260505204004 50 37 0.0 2.6 0.00 0.00 0.00 80 1010.0
20260505203532 50 51 0.0 0.0 0.00 0.00 0.00 80 1010.1
20260505203009 50 44 0.0 1.7 0.00 0.00 0.00 81 1010.1
20260505202635 50 44 0.0 1.7 0.00 0.00 0.00 81 1010.0
20260505201034 51 136 0.0 4.3 0.00 0.00 0.00 81 1010.1
20260505200558 51 53 0.9 4.3 0.00 0.00 0.00 81 1010.1
20260505200109 51 355 0.9 4.3 0.00 0.00 0.00 81 1010.1
20260505195725 51 351 0.9 4.3 0.00 0.00 0.00 81 1010.1
20260505194019 51 15 0.0 3.5 0.00 0.00 0.00 81 1010.1
20260505193538 51 29 0.0 3.5 0.00 0.00 0.00 81 1010.0
20260505192956 51 54 0.0 3.5 0.00 0.00 0.00 81 1009.9
20260505192518 51 75 0.9 4.3 0.00 0.00 0.00 81 1009.9
20260505192136 51 6 0.0 4.3 0.00 0.00 0.00 80 1010.0
20260505191014 51 112 0.0 4.3 0.00 0.00 0.00 80 1010.0
20260505190535 51 70 0.0 1.7 0.00 0.00 0.00 80 1010.0
20260505190056 51 48 0.0 5.2 0.00 0.00 0.00 80 1009.9
20260505185520 51 40 0.0 5.2 0.00 0.00 0.00 79 1009.8
20260505185042 51 359 0.9 4.3 0.00 0.00 0.00 79 1009.8
20260505184455 51 26 0.9 4.3 0.00 0.00 0.00 79 1009.9
20260505184011 51 58 0.0 3.5 0.00 0.00 0.00 79 1009.8
20260505183541 51 84 0.0 3.5 0.00 0.00 0.00 79 1009.9
20260505183004 51 27 0.0 3.5 0.00 0.00 0.00 79 1009.9
20260505182523 51 356 0.0 3.5 0.00 0.00 0.00 79 1009.9
20260505182042 51 39 0.9 3.5 0.00 0.00 0.00 78 1009.9
20260505181503 51 0 0.9 3.5 0.00 0.00 0.00 78 1009.9
20260505181121 51 150 0.0 4.3 0.00 0.00 0.00 78 1009.8
20260505180055 52 67 0.0 2.6 0.00 0.00 0.00 77 1009.9
20260505175526 52 15 0.0 2.6 0.00 0.00 0.00 77 1009.9
20260505175054 52 37 0.0 2.6 0.00 0.00 0.00 77 1009.9
20260505174532 52 103 0.0 2.6 0.00 0.00 0.00 77 1010.0
20260505174005 52 43 0.0 2.6 0.00 0.00 0.00 77 1010.0
20260505173527 52 34 0.0 6.1 0.00 0.00 0.00 77 1009.9
20260505173003 52 33 0.0 6.1 0.00 0.00 0.00 77 1009.9
20260505172612 52 6 0.9 6.1 0.00 0.00 0.00 76 1009.8
20260505171531 52 82 0.0 4.3 0.00 0.00 0.00 76 1009.9
20260505171053 52 0 0.9 4.3 0.00 0.00 0.00 76 1009.9
20260505170707 53 65 0.9 3.5 0.00 0.00 0.00 75 1010.0
20260505165727 53 2 0.9 6.1 0.00 0.00 0.00 76 1010.0
20260505164011 53 17 0.9 4.3 0.00 0.00 0.00 75 1010.1
20260505163522 53 96 0.0 7.8 0.00 0.00 0.00 75 1010.0
20260505163043 53 125 0.0 7.8 0.00 0.00 0.00 75 1010.1
20260505162607 53 339 0.0 4.3 0.00 0.00 0.00 74 1010.0
20260505161540 53 26 0.0 4.3 0.00 0.00 0.00 74 1010.1
20260505161002 53 17 0.9 3.5 0.00 0.00 0.00 73 1010.0
20260505160521 54 37 0.0 5.2 0.00 0.00 0.00 73 1010.1
20260505160131 54 190 0.0 5.2 0.00 0.00 0.00 73 1010.1
20260505153019 54 34 0.9 5.2 0.00 0.00 0.00 73 1010.1
20260505152638 54 358 0.0 5.2 0.00 0.00 0.00 72 1010.1
20260505151519 54 2 0.0 6.1 0.00 0.00 0.00 73 1010.2
20260505151140 54 116 2.6 6.1 0.00 0.00 0.00 73 1010.2
20260505140448 54 91 0.0 2.6 0.00 0.00 0.00 74 1010.6